FlightSource - Aviation Photo Database

World Wide Airport Lookup


Search by ICAO
Or
Search by City

FlightSource.ca - Aviation Photo Database - Cochrane Airport Information
Airport Identification
Name: Cochrane Airport
ICAO: SCHR
IATA: LGR
Airport Location
City: Cochrane
Region: AI
Country: Chile
Continent: South America
Latitude: -47.2438
Longitude: -72.5884
Airport Information
Type: Medium Airport
Elevation: 643 Feet ASL
Flight Status: SCHR
More Info: SCHR
Airport Weather    
Metar: SCHR 162000Z 00000KT 8000 -RA SCT005 OVC015 05/04 Q1001
TAF:


Advertisement